📊 Raw Sensor Data

Showing records 43526 to 43550 of 85,019 total

ID Distance (ft) Battery V Battery A Int Temp (°F) Int Humid (%) Ext Temp (°F) Solar V RSSI SNR Time Stamp
41506 16.1 3.92 0 66 42 69 5.10 -69 8 05/24/2025 09:00 AM
41505 16.1 4.12 0 65 43 70 5.10 -69 8 05/24/2025 08:45 AM
41504 16.1 3.92 0 63 42 67 5.10 -69 8 05/24/2025 08:30 AM
41503 16.1 4.09 0 62 42 65 5.10 -68 7 05/24/2025 08:15 AM
41502 16.0 4.10 0 60 41 65 5.10 -68 7 05/24/2025 08:00 AM
41501 16.0 3.93 0 58 41 65 5.10 -68 8 05/24/2025 07:45 AM
41500 16.0 4.07 29 57 41 64 4.50 -69 8 05/24/2025 07:30 AM
41499 16.0 3.97 15 55 41 63 4.50 -68 8 05/24/2025 07:15 AM
41498 15.9 4.02 9 53 41 61 4.50 -68 8 05/24/2025 07:00 AM
41497 15.9 3.97 9 52 41 58 4.60 -69 8 05/24/2025 06:45 AM
41496 15.8 3.95 0 50 41 55 4.50 -69 7 05/24/2025 06:30 AM
41495 15.8 3.84 0 49 41 52 4.50 -69 8 05/24/2025 06:15 AM
41494 15.7 3.91 -8 47 42 49 4.50 -68 8 05/24/2025 06:00 AM
41493 15.7 3.83 -9 47 42 49 3.40 -68 8 05/24/2025 05:45 AM
41492 15.8 3.83 -5 47 42 49 0.30 -68 8 05/24/2025 05:30 AM
41491 15.8 3.83 -5 47 42 49 0.00 -69 8 05/24/2025 05:15 AM
41490 15.4 3.83 -5 47 42 48 0.00 -69 8 05/24/2025 05:00 AM
41489 15.4 3.83 -5 48 42 49 0.00 -68 8 05/24/2025 04:45 AM
41488 15.4 3.83 -5 48 42 49 0.00 -69 8 05/24/2025 04:30 AM
41487 15.4 3.93 -5 47 42 49 0.00 -68 8 05/24/2025 04:15 AM
41486 15.4 3.86 -5 47 42 50 0.00 -69 8 05/24/2025 04:00 AM
41485 15.4 3.92 -5 47 42 49 0.00 -69 8 05/24/2025 03:45 AM
41484 15.4 3.83 -5 46 42 48 0.00 -69 8 05/24/2025 03:30 AM
41483 15.4 3.93 -5 46 43 47 0.00 -69 8 05/24/2025 03:15 AM
41482 15.4 3.84 -5 45 43 47 0.00 -70 8 05/24/2025 03:00 AM